Simultaneous Nadir Overpasses (SNOs) Predictions

Prediction of SNOs between GOES-15 and METOP-C Satellite Orbit:

Table of predicted SNOs for the next 14.0 days since TLE Epoch: 8/7/2022
Index Date Time (GOES-15) GOES-15 Lat,Lon METOP-C Lat,Lon Distance(km) Time Diff (sec)
1 08/07/2022 06:13:55 0.03,-127.99 -0.63,-131.07 349.40 80
2 08/08/2022 05:55:54 0.00,-128.01 0.44,-126.06 221.67 80
3 08/09/2022 18:12:08 -0.04,-128.10 0.50,-130.65 289.13 80
4 08/10/2022 17:54:07 -0.02,-128.12 -0.58,-125.64 282.02 80
5 08/12/2022 06:10:27 0.06,-128.06 -0.41,-130.24 248.93 80
6 08/13/2022 05:52:26 0.04,-128.06 0.66,-125.24 321.71 80
7 08/14/2022 18:08:39 -0.08,-128.16 0.27,-129.82 189.60 80
8 08/15/2022 17:50:39 -0.06,-128.17 -0.81,-124.82 381.59 80
9 08/17/2022 06:06:58 0.10,-128.11 -0.19,-129.42 148.82 80
10 08/18/2022 05:48:58 0.07,-128.12 0.89,-124.42 421.64 80
11 08/19/2022 18:05:10 -0.11,-128.20 0.09,-128.99 90.71 80
12 08/20/2022 17:47:11 -0.08,-128.21 -1.05,-124.00 479.92 80
